Location: Ohmer (historical)
(38.0096°N, 122.0227°W)
Time: 06:00:51
(UTC+00:00)

Cosmos 1869 - Pass Details

Date: 14 February 2026
Orbit: 447 x 473 km, 82.5° (Epoch: 5 March)

Event Time Altitude Azimuth Distance (km) Brightness Sun altitude
Rises 14:03:38 0° 196° (SSW) 2,497 6.6 -11.5°
Reaches altitude 10° 14:05:45 10° 201° (SSW) 1,621 5.6 -11.1°
Maximum altitude 14:09:13 53° 279° (W) 578 3.1 -10.4°
Drops below altitude 10° 14:12:41 10° 357° (N) 1,618 5.6 -9.8°
Sets 14:14:47 0° 2° (N) 2,492 6.6 -9.3°
